Regional Weather Roundup
Issued by NWS Portland, ME

Home | Current Version | Previous Version | Text Only | Print | Product List | Glossary On
Versions: 1 2 3 4 5 6 7 8 9 10 11 12 13 14 15 16 17 18 19 20 21 22 23 24 25 26 27 28 29 30 31 32 33 34 35 36 37 38 39 40 41 42 43 44 45 46 47 48 49 50
000
ASUS41 KGYX 062110
RWRGYX
WEATHER ROUNDUP FOR MAINE AND NEW HAMPSHIRE
NATIONAL WEATHER SERVICE GRAY ME
400 PM EST FRI MAR 06 2015

MEZ002-005-006-010-012-015-018-020-021-024-026-027-029-062200-
MAINE

CITY           SKY/WX    TMP DP  RH WIND       PRES   REMARKS
PORTLAND       SUNNY     23   1  38 S13       30.37F WCI  11
SANFORD        SUNNY     25  -8  24 SW10      30.35F WCI  15
BAR HARBOR     SUNNY     21  -2  35 SW8       30.36S
WISCASSET      SUNNY     22  -4  32 SW8       30.38F
ROCKLAND       SUNNY     21   1  42 SW10      30.36F WCI  10
FRYEBURG       SUNNY     26  -8  22 VRB6      30.29F
LEWISTONAUBURN SUNNY     23  -6  28 S8        30.32F
AUGUSTA        SUNNY     23  -9  24 SW9       30.32F
WATERVILLE     SUNNY     25  -6  26 SW10      30.28F WCI  15
BANGOR         SUNNY     22 -10  24 SW9       30.32F
GREENVILLE       N/A     19 -10  27 VRB6      30.14F
MILLINOCKET    SUNNY     24  -9  23 VRB6      30.25F
HOULTON        SUNNY     19  -9  28 SW14      30.21F WCI   6
PRESQUE ISLE   SUNNY     21 -11  23 SW12      30.18F WCI   9
FRENCHVILLE    SUNNY     17  -8  32 SW10G22   30.09F WCI   5
CARIBOU        SUNNY     19  -9  28 SW15G21   30.15F WCI   5
$$

NHZ002-005-008-009-011-012-014-062200-
NEW HAMPSHIRE

CITY           SKY/WX    TMP DP  RH WIND       PRES   REMARKS
PORTSMOUTH     SUNNY     23   2  40 S8        30.35F
ROCHESTER      SUNNY     27  -8  21 VRB5      30.34F
NASHUA         SUNNY     28  -4  25 VRB3      30.37F
MANCHESTER     SUNNY     27  -5  24 S10       30.34F WCI  17
CONCORD        SUNNY     27  -7  22 SW8       30.33F
LACONIA        SUNNY     25  -8  24 W7        30.29F
PLYMOUTH       FAIR      26  -2  30 W6        30.30F
BERLIN         SUNNY     22 -13  21 W5        30.23F
WHITEFIELD     SUNNY     21 -10  25 SW6       30.25F
JAFFREY        SUNNY     24  -7  25 VRB6      30.29F
KEENE          SUNNY     27  -2  28 S6        30.33F
LEBANON        SUNNY     26  -8  22 SW8       30.30F
MT WASHINGTON  MOSUNNY   -4 -15  59 W25         N/A  WCI -30
$$

VTZ005-007-008-062200-
VERMONT

CITY           SKY/WX    TMP DP  RH WIND       PRES   REMARKS
ST JOHNSBURY     N/A     23  -6  28 MISG      30.26F
MONTPELIER     SUNNY     22 -11  23 W6        30.28F
BURLINGTON     MOSUNNY   23  -4  30 S13       30.31F WCI  11
$$

MAZ007-012-024-CTZ003-RIZ002-NYZ038-NYZ072-062200-
SOUTHERN NEW ENGLAND AND NY

CITY           SKY/WX    TMP DP  RH WIND       PRES   REMARKS
BOSTON         MOSUNNY   23   8  52 SE14      30.41F WCI  11
WORCESTER      SUNNY     24  -8  24 W10       30.31F WCI  14
NANTUCKET      MOSUNNY   25  12  58 N6        30.43F
PROVIDENCE     MOSUNNY   22   0  38 S6        30.42F
HARTFORD       SUNNY     27   2  34 SE12      30.38F WCI  17
ALBANY         MOSUNNY   26  -1  31 CALM      30.39F
NEW YORK CITY  MOSUNNY   27   2  34 CALM      30.44F
$$

ANZ081-ANZ082-ANZ150-NHZ014-MEZ023>029-062200-
COASTAL MARINE OBSERVATIONS

STATION/POSITION TIME  TEMP    WIND        PRES    WAVE
                       AIR SEA DIR/SP/G            HT/PER
                 (UTC) (F)     (DEG/KT/KT) (MB)    (FT/S)
MOUNT DESERT ROC 2100   20                 1028.3F
MATINICUS ROCK   2100   20     230/ 12/ 16 1028.9F
WELLS            2000   22     180/ 13/ 18 1028.8F
ISLE OF SHOALS   2100   22     170/ 14/ 16 1028.3F
JEFFREYS LEDGE   2021      40                N/A     3/10
CASHES LEDGE BUO 2050   22 43              1029.1F   2/10
$$

.............KEY..............
   WCI - WIND CHILL
   TC  - TEMPERATURE IN CELSIUS
   VSB - VISIBILITY IN MILES
   HX  - HEAT INDEX
   FAIR- INDICATES FEW OR NO CLOUDS BELOW 12,000 FT, WITH NO
         SIGNIFICANT WEATHER AND/OR OBSTRUCTIONS TO VISIBILITY.





USA.gov is the U.S. government's official web portal to all federal, state and local government web resources and services.